Weather reports worldwide

Advertisment
Guernsey, United Kingdom (3894): temperature & dewpoint: 21.05.2018 09:00:00 - 27.05.2018 09:00:00 (BST)Guernsey, United Kingdom (3894): temperature -20cm & temperature -100cm: 21.05.2018 09:00:00 - 27.05.2018 09:00:00 (BST)Guernsey, United Kingdom (3894): wind speed & gusts: 21.05.2018 09:00:00 - 27.05.2018 09:00:00 (BST)Guernsey, United Kingdom (3894): wind direction: 21.05.2018 09:00:00 - 27.05.2018 09:00:00 (BST)Guernsey, United Kingdom (3894): reduced air pressure: 21.05.2018 09:00:00 - 27.05.2018 09:00:00 (BST)Guernsey, United Kingdom (3894): visibility: 21.05.2018 09:00:00 - 27.05.2018 09:00:00 (BST)Guernsey, United Kingdom (3894): precipitation: 21.05.2018 09:00:00 - 27.05.2018 09:00:00 (BST)
Date & Time tt [°C] td [°C] tt -20cm [°C] tt -100cm [°C] ff [km/h] ff [kn] fx [km/h] fx [kn] dd ppp [hPa] vv [km] rr [mm]
27.05.2018 09:00:00 16,0 16,0 - - 21 11 - - SE - 10 -
27.05.2018 08:00:00 15,3 14,9 - - 16 9 - - SE 1014,0 10 -
27.05.2018 07:00:00 15,0 14,9 - - 18 10 - - SE 1014,0 8 -
27.05.2018 06:00:00 14,7 14,7 - - 18 10 - - SE 1013,6 3,0 -
27.05.2018 05:00:00 14,3 14,3 - - 21 11 - - SE 1013,0 0,6 -
27.05.2018 04:00:00 14,3 14,3 - - 18 10 - - SE 1013,1 5 -
27.05.2018 03:00:00 14,3 14,3 - - 21 11 - - SE 1012,7 1,8 -
27.05.2018 02:00:00 14,9 14,2 - - 22 12 - - SE 1012,7 10 -
27.05.2018 01:00:00 15,0 14,4 - - 24 13 - - SE 1012,7 10 -
27.05.2018 00:00:00 15,0 14,2 - - 16 9 - - SSW 1012,1 10 -
26.05.2018 23:00:00 16,0 14,9 - - 15 8 - - S 1011,7 10 -
26.05.2018 22:00:00 19,2 16,4 - - 9 5 - - ENE 1012,0 10 -
26.05.2018 21:00:00 18,5 16,0 - - 13 7 - - E 1011,9 10 -
26.05.2018 20:00:00 19,4 15,9 - - 16 9 - - E 1012,1 8 -
26.05.2018 19:00:00 19,9 16,1 - - 15 8 - - ENE 1011,7 7 -
26.05.2018 18:00:00 20,1 16,0 - - 15 8 - - ENE 1011,7 7 -
26.05.2018 17:00:00 19,7 15,6 - - 18 10 - - ENE 1012,1 7 -
26.05.2018 16:00:00 18,1 14,5 - - 22 12 - - ENE 1012,4 5 -
26.05.2018 15:00:00 15,8 14,1 - - 28 15 - - ENE 1013,6 3,5 -
26.05.2018 14:00:00 14,9 14,0 - - 26 14 46 25 NE 1013,3 3,0 -
26.05.2018 13:00:00 15,3 13,5 - - 28 15 50 27 NE 1014,4 3,5 -
26.05.2018 12:00:00 14,5 13,3 - - 26 14 - - NE 1015,0 2,8 -
26.05.2018 11:00:00 14,9 13,3 - - 26 14 48 26 NE 1015,7 3,0 -
26.05.2018 10:00:00 15,3 13,5 16,0 13,9 24 13 - - NE 1015,7 3,5 -
26.05.2018 09:00:00 14,0 13,2 - - 21 11 - - NE 1016,4 4,0 -
26.05.2018 08:00:00 13,4 13,2 - - 18 10 - - NE 1016,2 3,5 -
26.05.2018 07:00:00 12,4 12,4 - - 18 10 - - NE 1016,8 1,0 -
26.05.2018 06:00:00 12,0 12,0 - - 15 8 - - NE 1016,9 0,3 -
26.05.2018 05:00:00 11,4 11,4 - - 18 10 - - NE 1016,6 0,2 -
26.05.2018 04:00:00 11,0 11,0 - - 15 8 - - NNE 1016,9 0,2 -
26.05.2018 03:00:00 10,9 10,9 - - 13 7 - - NNE 1017,3 0,1 -
26.05.2018 02:00:00 11,0 11,0 - - 9 5 - - NNE 1017,4 7 -
26.05.2018 01:00:00 11,8 11,3 - - 9 5 - - NE 1017,8 9 0,0
26.05.2018 00:00:00 11,5 11,3 - - 11 6 - - NE 1017,9 7 -
25.05.2018 23:00:00 11,9 11,5 - - 9 5 - - NE 1017,7 5 -
25.05.2018 22:00:00 11,9 11,5 - - 13 7 - - ENE 1018,1 3,0 -
25.05.2018 21:00:00 12,3 11,6 - - 11 6 - - NE 1017,7 8 -
25.05.2018 20:00:00 12,4 11,7 - - 13 7 - - NNE 1017,4 7 -
25.05.2018 19:00:00 13,7 12,4 - - 13 7 - - NNE 1017,1 6 -
25.05.2018 18:00:00 14,4 12,9 - - 15 8 - - NNE 1016,8 6 -
25.05.2018 17:00:00 15,8 13,7 - - 13 7 - - N 1017,0 4,0 -
25.05.2018 16:00:00 16,8 13,8 - - 11 6 - - N 1017,2 8 -
25.05.2018 15:00:00 17,3 14,5 - - 9 5 - - N 1017,7 8 -
25.05.2018 14:00:00 17,1 14,3 - - 11 6 - - NNW 1017,8 6 -
25.05.2018 13:00:00 15,4 13,9 - - 5 3 - - - 1018,3 5 -
25.05.2018 12:00:00 16,1 14,0 - - 8 4 - - NNE 1018,2 8 -
25.05.2018 11:00:00 15,1 14,2 - - 5 3 - - - 1018,0 6 -
25.05.2018 10:00:00 13,7 13,7 15,7 13,9 4 2 - - - 1018,4 2,8 -
25.05.2018 09:00:00 13,0 13,0 - - 5 3 - - - 1018,4 0,7 -
25.05.2018 08:00:00 12,9 12,9 - - 4 2 - - NNE 1018,4 1,0 -
25.05.2018 07:00:00 12,2 12,2 - - 5 3 - - N 1018,3 0,8 0,0
25.05.2018 06:00:00 12,3 12,3 - - 5 3 - - - 1018,1 0,3 -
25.05.2018 05:00:00 12,3 12,3 - - 4 2 - - NNW 1017,7 0,2 -
25.05.2018 04:00:00 12,3 12,3 - - 5 3 - - N 1018,0 0,2 -
25.05.2018 03:00:00 12,4 12,4 - - 5 3 - - - 1018,1 0,3 -
25.05.2018 02:00:00 12,2 12,2 - - 5 3 - - - 1018,2 0,3 -
25.05.2018 01:00:00 12,2 12,2 - - 5 3 - - N 1018,4 0,4 0,0
25.05.2018 00:00:00 12,2 12,2 - - 5 3 - - N 1018,6 0,5 -
24.05.2018 23:00:00 12,1 12,1 - - 5 3 - - NNE 1018,6 0,6 -
24.05.2018 22:00:00 12,0 12,0 - - 9 5 - - NNE 1018,9 0,8 -
24.05.2018 21:00:00 12,1 12,1 - - 11 6 - - NNE 1018,6 0,7 -
24.05.2018 20:00:00 12,8 12,3 - - 13 7 - - NNE 1018,3 1,7 -
24.05.2018 19:00:00 13,0 12,1 - - 13 7 - - NNE 1018,0 4,0 0,0
24.05.2018 18:00:00 13,5 12,0 - - 11 6 - - NE 1018,0 5 -
24.05.2018 17:00:00 13,6 12,4 - - 13 7 - - NE 1018,1 4,2 -
24.05.2018 16:00:00 13,7 12,4 - - 8 4 - - NE 1018,4 6 -
24.05.2018 15:00:00 13,3 12,1 - - 9 5 - - NE 1018,6 4,5 -
24.05.2018 14:00:00 13,0 12,1 - - 13 7 - - NE 1018,8 2,1 -
24.05.2018 13:00:00 13,0 12,1 - - 9 5 - - ENE 1019,2 2,0 0,0
24.05.2018 12:00:00 12,4 11,5 - - 9 5 - - ENE 1019,6 3,5 -
24.05.2018 11:00:00 12,3 11,1 - - 15 8 - - ENE 1019,4 5 -
24.05.2018 10:00:00 12,6 11,3 16,0 13,7 11 6 - - NE 1019,5 5 -
24.05.2018 09:00:00 12,1 10,8 - - 13 7 - - NE 1019,9 5 -
24.05.2018 08:00:00 12,2 10,9 - - 13 7 - - NE 1019,6 5 -
24.05.2018 07:00:00 11,8 10,8 - - 21 11 - - NE 1019,3 5 0,0
24.05.2018 06:00:00 12,0 11,1 - - 13 7 - - NE 1018,8 6 -
24.05.2018 05:00:00 12,3 11,3 - - 13 7 - - NE 1019,1 7 -
24.05.2018 04:00:00 12,0 10,9 - - 11 6 - - NNE 1019,8 10 -
24.05.2018 03:00:00 12,0 10,4 - - 8 4 - - NNE 1020,2 10 -
24.05.2018 02:00:00 12,2 10,6 - - 8 4 - - NNE 1020,4 10 -
24.05.2018 01:00:00 11,9 10,8 - - 8 4 - - NNE 1020,6 10 0,0
24.05.2018 00:00:00 11,4 10,4 - - 8 4 - - N 1020,9 10 -
23.05.2018 23:00:00 11,4 10,1 - - 5 3 - - E 1021,1 10 -
23.05.2018 22:00:00 11,6 9,6 - - 9 5 - - NE 1021,4 10 -
23.05.2018 21:00:00 13,1 9,7 - - 9 5 - - NE 1020,8 10 -
23.05.2018 20:00:00 14,4 9,8 - - 9 5 - - NNE 1021,0 10 -
23.05.2018 19:00:00 15,6 9,5 - - 15 8 - - NE 1020,4 10 0,0
23.05.2018 18:00:00 16,0 9,1 - - 15 8 - - NE 1020,5 10 -
23.05.2018 17:00:00 16,0 8,9 - - 21 11 - - ENE 1020,8 10 -
23.05.2018 16:00:00 16,0 8,9 - - 22 12 - - NE 1021,2 10 -
23.05.2018 15:00:00 15,9 10,3 - - 16 9 - - NE 1021,5 10 -
23.05.2018 14:00:00 15,7 10,4 - - 15 8 - - NNE 1021,8 10 -
23.05.2018 13:00:00 15,6 10,8 - - 16 9 - - ENE 1021,9 10 0,0
23.05.2018 12:00:00 14,4 10,4 - - 21 11 - - NE 1022,2 10 -
23.05.2018 11:00:00 14,0 10,2 - - 21 11 - - NE 1021,9 10 -
23.05.2018 10:00:00 13,4 10,5 16,0 13,7 22 12 - - NE 1021,8 10 -
23.05.2018 09:00:00 13,3 10,4 - - 21 11 - - NE 1021,6 10 -
23.05.2018 08:00:00 12,8 10,5 - - 18 10 - - NE 1021,2 10 -
23.05.2018 07:00:00 11,9 10,3 - - 18 10 - - NE 1020,9 10 0,0
23.05.2018 06:00:00 11,2 9,8 - - 13 7 - - NE 1020,3 10 -
23.05.2018 05:00:00 11,4 9,7 - - 15 8 - - NE 1019,9 10 -
23.05.2018 04:00:00 12,2 9,5 - - 16 9 - - NE 1019,7 10 -
23.05.2018 03:00:00 13,0 9,6 - - 18 10 - - NE 1019,7 10 -
23.05.2018 02:00:00 14,7 9,7 - - 22 12 - - ENE 1019,5 10 -
23.05.2018 01:00:00 13,6 10,8 - - 11 6 - - NE 1019,5 10 0,0
23.05.2018 00:00:00 12,7 10,6 - - 11 6 - - N 1019,4 10 -
22.05.2018 23:00:00 13,0 10,3 - - 9 5 - - NNW 1019,2 10 -
22.05.2018 22:00:00 13,5 9,9 - - 13 7 - - NNW 1018,9 10 -
22.05.2018 21:00:00 14,0 10,0 - - 15 8 - - NW 1018,3 10 -
22.05.2018 20:00:00 15,9 9,9 - - 11 6 - - NNW 1017,8 10 -
22.05.2018 19:00:00 16,2 10,7 - - 16 9 - - NNW 1017,4 10 0,0
22.05.2018 18:00:00 17,5 11,2 - - 15 8 - - N 1017,3 10 -
22.05.2018 17:00:00 17,2 11,3 - - 15 8 - - N 1017,1 10 -
22.05.2018 16:00:00 16,8 11,1 - - 13 7 - - N 1017,4 10 -
22.05.2018 15:00:00 17,5 11,1 - - 16 9 - - N 1017,3 10 -
22.05.2018 14:00:00 17,2 10,6 - - 21 11 - - NNE 1017,0 10 -
22.05.2018 13:00:00 15,9 10,8 - - 18 10 - - NNE 1017,0 10 0,0
22.05.2018 12:00:00 16,2 11,1 - - 15 8 - - NNE 1016,7 10 -
22.05.2018 11:00:00 14,3 11,3 - - 18 10 - - N 1016,6 8 -
22.05.2018 10:00:00 14,9 11,0 15,7 13,4 18 10 - - N 1016,1 8 -
22.05.2018 09:00:00 13,9 11,0 - - 18 10 - - NNE 1015,9 8 -
22.05.2018 08:00:00 12,5 11,1 - - 13 7 - - N 1015,9 8 -
22.05.2018 07:00:00 12,1 11,0 - - 11 6 - - N 1015,4 10 -
22.05.2018 06:00:00 12,0 10,6 - - 11 6 - - N 1015,0 10 -
22.05.2018 05:00:00 12,0 10,2 - - 13 7 - - N 1014,8 10 -
22.05.2018 04:00:00 12,0 10,4 - - 11 6 - - NNW 1014,8 10 -
22.05.2018 03:00:00 12,3 10,4 - - 9 5 - - N 1014,8 10 -
22.05.2018 02:00:00 11,5 9,5 - - 9 5 - - N 1015,0 10 -
22.05.2018 01:00:00 12,1 9,1 - - 11 6 - - NNW 1015,2 10 0,0
22.05.2018 00:00:00 11,9 9,8 - - 5 3 - - NNW 1015,2 10 -
21.05.2018 23:00:00 12,1 9,7 - - 8 4 - - N 1015,5 7 -
21.05.2018 22:00:00 11,6 10,1 - - 9 5 - - N 1015,6 7 -
21.05.2018 21:00:00 11,8 10,5 - - 9 5 - - N 1015,1 7 -
21.05.2018 20:00:00 15,3 10,0 - - 13 7 - - NE 1014,5 10 -
21.05.2018 19:00:00 16,1 10,3 - - 15 8 - - NNE 1014,3 10 0,0
21.05.2018 18:00:00 16,9 10,3 - - 15 8 - - NE 1013,7 10 -
21.05.2018 17:00:00 16,9 10,6 - - 16 9 - - NNE 1013,8 10 -
21.05.2018 16:00:00 16,4 11,1 - - 18 10 - - NE 1014,1 10 -
21.05.2018 15:00:00 15,7 11,2 - - 18 10 - - NNE 1014,7 9 -
21.05.2018 14:00:00 16,2 11,4 - - 15 8 - - NNE 1014,8 10 -
21.05.2018 13:00:00 17,3 11,6 - - 18 10 - - NE 1014,5 10 0,0
21.05.2018 12:00:00 15,3 11,3 - - 15 8 - - NNE 1014,9 10 -
21.05.2018 11:00:00 15,1 11,5 - - 15 8 - - NE 1015,1 10 -
21.05.2018 10:00:00 15,8 11,5 15,4 13,2 15 8 - - NE 1015,1 9 -
21.05.2018 09:00:00 13,8 10,7 - - 16 9 - - NE 1015,6 8 -

tt = temperature
td = dewpoint
tt -20cm = temperature -20cm
tt -100cm = temperature -100cm
ff = wind speed
fx = gusts
dd = wind direction
ppp = reduced air pressure
vv = visibility
rr = precipitation

Next stations